,,,PA_Meas_PMT16A,,PR_Meas_QMR101_102,,RH_Meas_QMH101,,SR_Meas_QMS101,,TA_Meas_QMH101,,GenWind,,GenWind,
date,time,status,PA,status,PR,status,RH,status,SR,status,TA,status,DirAvg,status,SpdAvg,
2009-12-26, 00:00:04,VALID,1002.17,VALID,0,VALID,94.5752,VALID,0,VALID,24.307,VALID,353,VALID,0,
2009-12-26, 00:01:04,VALID,1002.14,VALID,0,VALID,94.5676,VALID,0,VALID,24.2468,VALID,353,VALID,0,
2009-12-26, 00:02:04,VALID,1002.14,VALID,0,VALID,94.5676,VALID,0,VALID,24.2273,VALID,353,VALID,0,
2009-12-26, 00:03:04,VALID,1002.1,VALID,0,VALID,94.5676,VALID,0,VALID,24.2468,VALID,353,VALID,0,
2009-12-26, 00:04:04,VALID,1002.05,VALID,0,VALID,94.5676,VALID,0,VALID,24.2681,VALID,353,VALID,0,
2009-12-26, 00:05:04,VALID,1002.07,VALID,0,VALID,94.56,VALID,0,VALID,24.2273,VALID,353,VALID,0,
2009-12-26, 00:06:04,VALID,1002.03,VALID,0,VALID,94.5676,VALID,0,VALID,24.2097,VALID,353,VALID,0,
2009-12-26, 00:07:04,VALID,1002.02,VALID,0,VALID,94.5752,VALID,0,VALID,24.2291,VALID,353,VALID,0,
2009-12-26, 00:08:04,VALID,1002.04,VALID,0,VALID,94.5905,VALID,0,VALID,24.2291,VALID,353,VALID,0,
2009-12-26, 00:09:04,VALID,1002.05,VALID,0,VALID,94.6134,VALID,0,VALID,24.2078,VALID,353,VALID,0,
2009-12-26, 00:10:04,VALID,1002.03,VALID,0,VALID,94.6057,VALID,0.100563,VALID,24.2273,VALID,353,VALID,0,
2009-12-26, 00:11:04,VALID,1002,VALID,0,VALID,94.6363,VALID,0,VALID,24.2273,VALID,353,VALID,0,
2009-12-26, 00:12:04,VALID,1002.03,VALID,0,VALID,94.6363,VALID,0,VALID,24.2273,VALID,353,VALID,0,
2009-12-26, 00:13:04,VALID,1001.99,VALID,0,VALID,94.6515,VALID,0,VALID,24.2273,VALID,353,VALID,0,
2009-12-26, 00:14:04,VALID,1001.94,VALID,0,VALID,94.6897,VALID,0,VALID,24.2486,VALID,353,VALID,0,
2009-12-26, 00:15:04,VALID,1001.91,VALID,0,VALID,94.682,VALID,0,VALID,24.2273,VALID,353,VALID,0,
2009-12-26, 00:16:04,VALID,1001.91,VALID,0,VALID,94.6973,VALID,0,VALID,24.2468,VALID,353,VALID,0,
2009-12-26, 00:17:04,VALID,1001.89,VALID,0,VALID,94.7049,VALID,0,VALID,24.2486,VALID,353,VALID,0,
2009-12-26, 00:18:04,VALID,1001.88,VALID,0,VALID,94.6744,VALID,0,VALID,24.2486,VALID,353,VALID,0,
2009-12-26, 00:19:04,VALID,1001.86,VALID,0,VALID,94.6897,VALID,0,VALID,24.2273,VALID,353,VALID,0,
2009-12-26, 00:20:04,VALID,1001.85,VALID,0,VALID,94.7049,VALID,0,VALID,24.2662,VALID,353,VALID,0,
2009-12-26, 00:21:05,VALID,1001.85,VALID,0,VALID,94.7278,VALID,0,VALID,24.3265,VALID,353,VALID,0,
2009-12-26, 00:22:05,VALID,1001.82,VALID,0,VALID,94.6897,VALID,0,VALID,24.2857,VALID,353,VALID,0,
2009-12-26, 00:23:05,VALID,1001.81,VALID,0,VALID,94.7125,VALID,0,VALID,24.307,VALID,353,VALID,0,
2009-12-26, 00:24:05,VALID,1001.81,VALID,0,VALID,94.6973,VALID,0,VALID,24.307,VALID,353,VALID,0,
2009-12-26, 00:25:05,VALID,1001.78,VALID,0,VALID,94.6973,VALID,0,VALID,24.2857,VALID,353,VALID,0,
2009-12-26, 00:26:05,VALID,1001.75,VALID,0,VALID,94.7125,VALID,0,VALID,24.3654,VALID,353,VALID,0,
2009-12-26, 00:27:05,VALID,1001.75,VALID,0,VALID,94.7202,VALID,0,VALID,24.3459,VALID,353,VALID,0,
2009-12-26, 00:28:05,VALID,1001.74,VALID,0,VALID,94.6973,VALID,0,VALID,24.3052,VALID,353,VALID,0,
2009-12-26, 00:29:05,VALID,1001.75,VALID,0,VALID,94.682,VALID,0,VALID,24.307,VALID,353,VALID,0,
2009-12-26, 00:30:05,VALID,1001.73,VALID,0,VALID,94.6591,VALID,0,VALID,24.3052,VALID,353,VALID,0,
2009-12-26, 00:31:05,VALID,1001.72,VALID,0,VALID,94.6363,VALID,0,VALID,24.307,VALID,353,VALID,0,
2009-12-26, 00:32:05,VALID,1001.71,VALID,0,VALID,94.6057,VALID,0,VALID,24.2875,VALID,353,VALID,0,
2009-12-26, 00:33:05,VALID,1001.67,VALID,0,VALID,94.5752,VALID,0,VALID,24.2486,VALID,353,VALID,0,
2009-12-26, 00:34:05,VALID,1001.68,VALID,0,VALID,94.5218,VALID,0,VALID,24.2486,VALID,353,VALID,0,
2009-12-26, 00:35:05,VALID,1001.67,VALID,0,VALID,94.5218,VALID,0,VALID,24.2468,VALID,353,VALID,0,
2009-12-26, 00:36:05,VALID,1001.65,VALID,0,VALID,94.5295,VALID,0.100563,VALID,24.2875,VALID,353,VALID,0,
2009-12-26, 00:37:05,VALID,1001.64,VALID,0,VALID,94.5523,VALID,0,VALID,24.307,VALID,353,VALID,0,
2009-12-26, 00:38:05,VALID,1001.61,VALID,0,VALID,94.5676,VALID,0,VALID,24.307,VALID,353,VALID,0,
2009-12-26, 00:39:05,VALID,1001.63,VALID,0,VALID,94.5752,VALID,0,VALID,24.3265,VALID,353,VALID,0,
2009-12-26, 00:40:05,VALID,1001.63,VALID,0,VALID,94.5829,VALID,0,VALID,24.3265,VALID,353,VALID,0,
2009-12-26, 00:41:05,VALID,1001.61,VALID,0,VALID,94.5905,VALID,0,VALID,24.3654,VALID,353,VALID,0,
2009-12-26, 00:42:05,VALID,1001.6,VALID,0,VALID,94.5752,VALID,0,VALID,24.3459,VALID,353,VALID,0,
2009-12-26, 00:43:05,VALID,1001.58,VALID,0,VALID,94.5676,VALID,0,VALID,24.3265,VALID,353,VALID,0,
2009-12-26, 00:44:05,VALID,1001.59,VALID,0,VALID,94.5447,VALID,0.100563,VALID,24.3052,VALID,353,VALID,0,
2009-12-26, 00:45:05,VALID,1001.58,VALID,0,VALID,94.5066,VALID,0,VALID,24.2662,VALID,353,VALID,0,
2009-12-26, 00:46:05,VALID,1001.56,VALID,0,VALID,94.4761,VALID,0,VALID,24.2681,VALID,353,VALID,0,
2009-12-26, 00:47:05,VALID,1001.56,VALID,0,VALID,94.4379,VALID,0.100563,VALID,24.1884,VALID,353,VALID,0,
2009-12-26, 00:48:05,VALID,1001.58,VALID,0,VALID,94.3845,VALID,0,VALID,24.1494,VALID,353,VALID,0,
2009-12-26, 00:49:05,VALID,1001.58,VALID,0,VALID,94.354,VALID,0.100563,VALID,24.1494,VALID,353,VALID,0,
2009-12-26, 00:50:05,VALID,1001.63,VALID,0,VALID,94.3692,VALID,0,VALID,24.1494,VALID,353,VALID,0,
2009-12-26, 00:51:05,VALID,1001.63,VALID,0,VALID,94.3845,VALID,0,VALID,24.13,VALID,353,VALID,0,
2009-12-26, 00:52:05,VALID,1001.63,VALID,0,VALID,94.3998,VALID,0,VALID,24.1494,VALID,353,VALID,0,
2009-12-26, 00:53:05,VALID,1001.62,VALID,0,VALID,94.4379,VALID,0,VALID,24.2078,VALID,353,VALID,0,
2009-12-26, 00:54:05,VALID,1001.62,VALID,0,VALID,94.4989,VALID,0,VALID,24.2468,VALID,353,VALID,0,
2009-12-26, 00:55:05,VALID,1001.57,VALID,0,VALID,94.5447,VALID,0.100563,VALID,24.2644,VALID,353,VALID,0,
2009-12-26, 00:56:05,VALID,1001.53,VALID,0,VALID,94.5905,VALID,0,VALID,24.3228,VALID,353,VALID,0,
2009-12-26, 00:57:05,VALID,1001.53,VALID,0,VALID,94.621,VALID,0,VALID,24.3849,VALID,353,VALID,0,
2009-12-26, 00:58:05,VALID,1001.51,VALID,0,VALID,94.6286,VALID,0,VALID,24.422,VALID,336,VALID,0.497656,
2009-12-26, 00:59:05,VALID,1001.44,VALID,0,VALID,94.682,VALID,0,VALID,24.5212,VALID,337,VALID,0.377344,
2009-12-26, 01:00:05,VALID,1001.46,VALID,0,VALID,94.682,VALID,0,VALID,24.5388,VALID,337,VALID,0.366016,
2009-12-26, 01:01:05,VALID,1001.44,VALID,0,VALID,94.6668,VALID,0.100563,VALID,24.5582,VALID,337,VALID,0.295312,
2009-12-26, 01:02:05,VALID,1001.41,VALID,0,VALID,94.5752,VALID,0,VALID,24.5388,VALID,337,VALID,0.444531,
2009-12-26, 01:03:05,VALID,1001.42,VALID,0,VALID,94.4761,VALID,0,VALID,24.5193,VALID,337,VALID,0.357812,
2009-12-26, 01:04:05,VALID,1001.42,VALID,0,VALID,94.3235,VALID,0,VALID,24.5193,VALID,338,VALID,0.414063,
2009-12-26, 01:05:05,VALID,1001.38,VALID,0,VALID,94.2014,VALID,0,VALID,24.5212,VALID,347,VALID,0.441016,
2009-12-26, 01:06:05,VALID,1001.35,VALID,0,VALID,94.1022,VALID,0.100563,VALID,24.4804,VALID,347,VALID,0.406641,
2009-12-26, 01:07:05,VALID,1001.33,VALID,0,VALID,94.087,VALID,0,VALID,24.5193,VALID,342,VALID,0.458984,
2009-12-26, 01:08:05,VALID,1001.33,VALID,0,VALID,94.0488,VALID,0,VALID,24.4998,VALID,343,VALID,0.450781,
2009-12-26, 01:09:05,VALID,1001.32,VALID,0,VALID,93.9725,VALID,0,VALID,24.4998,VALID,343,VALID,0.564062,
2009-12-26, 01:10:05,VALID,1001.33,VALID,0,VALID,93.8352,VALID,0,VALID,24.4609,VALID,343,VALID,0.414453,
2009-12-26, 01:11:05,VALID,1001.35,VALID,0,VALID,93.6598,VALID,0,VALID,24.4043,VALID,342,VALID,0.338672,
2009-12-26, 01:12:05,VALID,1001.33,VALID,0,VALID,93.5758,VALID,0,VALID,24.3636,VALID,343,VALID,0.3625,
2009-12-26, 01:13:05,VALID,1001.36,VALID,0,VALID,93.5758,VALID,0,VALID,24.3441,VALID,342,VALID,0.343359,
2009-12-26, 01:14:05,VALID,1001.34,VALID,0,VALID,93.5682,VALID,0,VALID,24.3246,VALID,342,VALID,0.436719,
2009-12-26, 01:15:05,VALID,1001.32,VALID,0,VALID,93.6064,VALID,0.100563,VALID,24.3246,VALID,342,VALID,0.430469,
2009-12-26, 01:16:05,VALID,1001.33,VALID,0,VALID,93.6521,VALID,0.100563,VALID,24.3246,VALID,342,VALID,0.444922,
2009-12-26, 01:17:05,VALID,1001.32,VALID,0,VALID,93.7284,VALID,0,VALID,24.3052,VALID,342,VALID,0.294141,
2009-12-26, 01:18:05,VALID,1001.31,VALID,0,VALID,93.7971,VALID,0,VALID,24.3246,VALID,342,VALID,0.235938,
2009-12-26, 01:19:05,VALID,1001.32,VALID,0,VALID,93.9039,VALID,0,VALID,24.3636,VALID,342,VALID,0.182031,
2009-12-26, 01:20:05,VALID,1001.32,VALID,0,VALID,94.0031,VALID,0.100563,VALID,24.4025,VALID,343,VALID,0,
2009-12-26, 01:21:05,VALID,1001.34,VALID,0,VALID,94.0565,VALID,0,VALID,24.4414,VALID,343,VALID,0.00585938,
2009-12-26, 01:22:05,VALID,1001.33,VALID,0,VALID,94.1099,VALID,0.100563,VALID,24.4183,VALID,343,VALID,0,
2009-12-26, 01:23:05,VALID,1001.34,VALID,0,VALID,94.1175,VALID,0,VALID,24.4396,VALID,343,VALID,0.0953125,
2009-12-26, 01:24:05,VALID,1001.33,VALID,0,VALID,94.1785,VALID,0,VALID,24.5388,VALID,343,VALID,0.168359,
2009-12-26, 01:25:05,VALID,1001.29,VALID,0,VALID,94.2548,VALID,0.100563,VALID,24.5758,VALID,343,VALID,0.287891,
2009-12-26, 01:26:05,VALID,1001.3,VALID,0,VALID,94.2624,VALID,0.100563,VALID,24.5953,VALID,343,VALID,0.366016,
2009-12-26, 01:27:05,VALID,1001.26,VALID,0,VALID,94.1938,VALID,0,VALID,24.5953,VALID,343,VALID,0.227344,
2009-12-26, 01:28:05,VALID,1001.2,VALID,0,VALID,94.0794,VALID,0,VALID,24.6166,VALID,346,VALID,0.483594,
2009-12-26, 01:29:05,VALID,1001.2,VALID,0,VALID,93.9497,VALID,0,VALID,24.6166,VALID,346,VALID,0.272266,
2009-12-26, 01:30:05,VALID,1001.2,VALID,0,VALID,93.8352,VALID,0,VALID,24.6166,VALID,346,VALID,0,
2009-12-26, 01:31:05,VALID,1001.17,VALID,0,VALID,93.7589,VALID,0,VALID,24.6574,VALID,346,VALID,0,
2009-12-26, 01:32:05,VALID,1001.19,VALID,0,VALID,93.6369,VALID,0,VALID,24.638,VALID,346,VALID,0,
2009-12-26, 01:33:05,VALID,1001.17,VALID,0,VALID,93.4843,VALID,0,VALID,24.5972,VALID,346,VALID,0,
2009-12-26, 01:34:05,VALID,1001.19,VALID,0,VALID,93.4309,VALID,0,VALID,24.5972,VALID,346,VALID,0,
2009-12-26, 01:35:05,VALID,1001.21,VALID,0,VALID,93.4538,VALID,0,VALID,24.5972,VALID,346,VALID,0,
2009-12-26, 01:36:05,VALID,1001.21,VALID,0,VALID,93.4843,VALID,0,VALID,24.6361,VALID,346,VALID,0,
2009-12-26, 01:37:05,VALID,1001.2,VALID,0,VALID,93.4919,VALID,0,VALID,24.6361,VALID,346,VALID,0,
2009-12-26, 01:38:05,VALID,1001.2,VALID,0,VALID,93.4843,VALID,0,VALID,24.6361,VALID,346,VALID,0,
2009-12-26, 01:39:05,VALID,1001.17,VALID,0,VALID,93.5606,VALID,0,VALID,24.675,VALID,346,VALID,0,
2009-12-26, 01:40:05,VALID,1001.18,VALID,0,VALID,93.5911,VALID,0.100563,VALID,24.6945,VALID,346,VALID,0,
2009-12-26, 01:41:05,VALID,1001.19,VALID,0,VALID,93.5835,VALID,0,VALID,24.6945,VALID,346,VALID,0,
2009-12-26, 01:42:05,VALID,1001.18,VALID,0,VALID,93.5301,VALID,0,VALID,24.6945,VALID,355,VALID,0,
2009-12-26, 01:43:05,VALID,1001.19,VALID,0,VALID,93.5911,VALID,0,VALID,24.7548,VALID,17,VALID,0.736328,
2009-12-26, 01:44:05,VALID,1001.19,VALID,0,VALID,93.5911,VALID,0,VALID,24.7548,VALID,20,VALID,0.260547,
2009-12-26, 01:45:05,VALID,1001.15,VALID,0,VALID,93.5682,VALID,0,VALID,24.7529,VALID,20,VALID,0,
2009-12-26, 01:46:05,VALID,1001.15,VALID,0,VALID,93.4843,VALID,0,VALID,24.7529,VALID,20,VALID,0.155469,
2009-12-26, 01:47:05,VALID,1001.15,VALID,0,VALID,93.4614,VALID,0,VALID,24.7724,VALID,21,VALID,0.0980469,
2009-12-26, 01:48:05,VALID,1001.13,VALID,0,VALID,93.4538,VALID,0,VALID,24.7919,VALID,82,VALID,0.124219,
2009-12-26, 01:49:05,VALID,1001.13,VALID,0,VALID,93.4309,VALID,0,VALID,24.7919,VALID,74,VALID,0.208203,
2009-12-26, 01:50:05,VALID,1001.13,VALID,0,VALID,93.3928,VALID,0,VALID,24.8113,VALID,66,VALID,0.0949219,
2009-12-26, 01:51:05,VALID,1001.12,VALID,0,VALID,93.4004,VALID,0,VALID,24.8522,VALID,66,VALID,0.153906,
2009-12-26, 01:52:05,VALID,1001.11,VALID,0,VALID,93.347,VALID,0,VALID,24.8308,VALID,66,VALID,0.259375,
2009-12-26, 01:53:05,VALID,1001.06,VALID,0,VALID,93.3241,VALID,0,VALID,24.8522,VALID,66,VALID,0.171484,
2009-12-26, 01:54:05,VALID,1001.11,VALID,0,VALID,93.2631,VALID,0,VALID,24.8308,VALID,66,VALID,0.186328,
2009-12-26, 01:55:05,VALID,1001.06,VALID,0,VALID,93.202,VALID,0,VALID,24.8308,VALID,66,VALID,0.379687,
2009-12-26, 01:56:05,VALID,1001.01,VALID,0,VALID,93.1486,VALID,0,VALID,24.8327,VALID,55,VALID,0.394922,
2009-12-26, 01:57:05,VALID,1000.93,VALID,0,VALID,93.0342,VALID,0,VALID,24.7937,VALID,45,VALID,0.322656,
2009-12-26, 01:58:05,VALID,1000.9,VALID,0,VALID,93.0647,VALID,0,VALID,24.7529,VALID,45,VALID,0.015625,
2009-12-26, 01:59:05,VALID,1000.86,VALID,0,VALID,93.1563,VALID,0,VALID,24.7937,VALID,303,VALID,0.837109,
2009-12-26, 02:00:05,VALID,1000.86,VALID,0,VALID,93.2325,VALID,0,VALID,24.7919,VALID,295,VALID,0.828125,
2009-12-26, 02:01:05,VALID,1000.84,VALID,0,VALID,93.1791,VALID,0,VALID,24.8327,VALID,299,VALID,0.747266,
2009-12-26, 02:02:05,VALID,1000.81,VALID,0,VALID,93.0647,VALID,0,VALID,24.8522,VALID,303,VALID,0.79375,
2009-12-26, 02:03:05,VALID,1000.78,VALID,0,VALID,92.9274,VALID,0,VALID,24.893,VALID,306,VALID,0.336719,
2009-12-26, 02:04:05,VALID,1000.77,VALID,0,VALID,92.7824,VALID,0,VALID,24.8911,VALID,271,VALID,0.266406,
2009-12-26, 02:05:05,VALID,1000.74,VALID,0,VALID,92.6909,VALID,0,VALID,24.8911,VALID,271,VALID,0.0253906,
2009-12-26, 02:06:05,VALID,1000.72,VALID,0,VALID,92.6146,VALID,0,VALID,24.8892,VALID,329,VALID,0.688281,
2009-12-26, 02:07:05,VALID,1000.69,VALID,0,VALID,92.5078,VALID,0,VALID,24.8697,VALID,352,VALID,0.0898438,
2009-12-26, 02:08:05,VALID,1000.72,VALID,0,VALID,92.401,VALID,0,VALID,24.8911,VALID,353,VALID,0.595312,
2009-12-26, 02:09:05,VALID,1000.69,VALID,0,VALID,92.3781,VALID,0,VALID,24.8484,VALID,351,VALID,0.535547,
2009-12-26, 02:10:05,VALID,1000.68,VALID,0,VALID,92.3629,VALID,0,VALID,24.8503,VALID,350,VALID,0.0554687,
2009-12-26, 02:11:05,VALID,1000.67,VALID,0,VALID,92.3476,VALID,0,VALID,24.8716,VALID,353,VALID,0.696875,
2009-12-26, 02:12:05,VALID,1000.66,VALID,0,VALID,92.2103,VALID,0,VALID,24.8113,VALID,353,VALID,0.568359,
2009-12-26, 02:13:05,VALID,1000.65,VALID,0,VALID,92.1798,VALID,0,VALID,24.7743,VALID,353,VALID,0.585938,
2009-12-26, 02:14:05,VALID,1000.65,VALID,0,VALID,92.34,VALID,0,VALID,24.7743,VALID,351,VALID,0.544922,
2009-12-26, 02:15:05,VALID,1000.6,VALID,0,VALID,92.4315,VALID,0,VALID,24.7335,VALID,349,VALID,0.285156,
2009-12-26, 02:16:05,VALID,1000.56,VALID,0,VALID,92.4697,VALID,0,VALID,24.714,VALID,349,VALID,0.360547,
2009-12-26, 02:17:05,VALID,1000.54,VALID,0,VALID,92.5154,VALID,0,VALID,24.6945,VALID,348,VALID,0.211328,
2009-12-26, 02:18:05,VALID,1000.54,VALID,0,VALID,92.5993,VALID,0,VALID,24.675,VALID,348,VALID,0.2125,
2009-12-26, 02:19:05,VALID,1000.52,VALID,0,VALID,92.6833,VALID,0,VALID,24.6556,VALID,301,VALID,0.615234,
2009-12-26, 02:20:05,VALID,1000.52,VALID,0,VALID,92.7672,VALID,0,VALID,24.6556,VALID,303,VALID,0.407813,
2009-12-26, 02:21:05,VALID,1000.49,VALID,0,VALID,92.8664,VALID,0,VALID,24.6769,VALID,348,VALID,0.588281,
2009-12-26, 02:22:05,VALID,1000.47,VALID,0,VALID,92.8358,VALID,0,VALID,24.6361,VALID,349,VALID,0.648047,
2009-12-26, 02:23:05,VALID,1000.45,VALID,0,VALID,92.9808,VALID,0,VALID,24.6361,VALID,297,VALID,0.715234,
2009-12-26, 02:24:05,VALID,1000.45,VALID,0,VALID,92.9961,VALID,0,VALID,24.6556,VALID,290,VALID,0.0664063,
2009-12-26, 02:25:05,VALID,1000.45,VALID,0,VALID,92.9961,VALID,0,VALID,24.6361,VALID,329,VALID,0.558594,
2009-12-26, 02:26:05,VALID,1000.42,VALID,0,VALID,92.9579,VALID,0,VALID,24.6574,VALID,345,VALID,0.526172,
2009-12-26, 02:27:05,VALID,1000.43,VALID,0,VALID,92.9121,VALID,0.100563,VALID,24.6361,VALID,346,VALID,0.430469,
2009-12-26, 02:28:05,VALID,1000.43,VALID,0,VALID,92.935,VALID,0.100563,VALID,24.6166,VALID,345,VALID,0.150391,
2009-12-26, 02:29:05,VALID,1000.48,VALID,0,VALID,92.9503,VALID,0,VALID,24.638,VALID,345,VALID,0.00195313,
2009-12-26, 02:30:05,VALID,1000.5,VALID,0,VALID,93.0037,VALID,0,VALID,24.6361,VALID,346,VALID,0,
2009-12-26, 02:31:05,VALID,1000.52,VALID,0,VALID,92.9045,VALID,0,VALID,24.6185,VALID,346,VALID,0,
2009-12-26, 02:32:05,VALID,1000.54,VALID,0,VALID,92.874,VALID,0,VALID,24.5796,VALID,346,VALID,0,
2009-12-26, 02:33:05,VALID,1000.55,VALID,0,VALID,92.7901,VALID,0,VALID,24.5388,VALID,346,VALID,0,
2009-12-26, 02:34:05,VALID,1000.55,VALID,0,VALID,92.7596,VALID,0,VALID,24.4804,VALID,346,VALID,0,
2009-12-26, 02:35:05,VALID,1000.55,VALID,0,VALID,92.7748,VALID,0.100563,VALID,24.4414,VALID,346,VALID,0,
2009-12-26, 02:36:05,VALID,1000.52,VALID,0,VALID,92.8587,VALID,0,VALID,24.4025,VALID,346,VALID,0,
2009-12-26, 02:37:05,VALID,1000.55,VALID,0,VALID,92.9732,VALID,0,VALID,24.4043,VALID,346,VALID,0,
2009-12-26, 02:38:05,VALID,1000.55,VALID,0,VALID,93.0342,VALID,0,VALID,24.3441,VALID,346,VALID,0,
2009-12-26, 02:39:05,VALID,1000.55,VALID,0,VALID,93.0876,VALID,0,VALID,24.2857,VALID,346,VALID,0,
2009-12-26, 02:40:05,VALID,1000.55,VALID,0,VALID,93.202,VALID,0,VALID,24.2662,VALID,346,VALID,0,
2009-12-26, 02:41:05,VALID,1000.55,VALID,0,VALID,93.2097,VALID,0,VALID,24.2078,VALID,347,VALID,0,
2009-12-26, 02:42:05,VALID,1000.55,VALID,0,VALID,93.2783,VALID,0,VALID,24.1689,VALID,347,VALID,0,
2009-12-26, 02:43:05,VALID,1000.57,VALID,0,VALID,93.3165,VALID,0,VALID,24.1513,VALID,347,VALID,0,
2009-12-26, 02:44:05,VALID,1000.54,VALID,0,VALID,93.4156,VALID,0,VALID,24.1318,VALID,347,VALID,0,
2009-12-26, 02:45:05,VALID,1000.54,VALID,0,VALID,93.6064,VALID,0,VALID,24.1494,VALID,3,VALID,0.577734,
2009-12-26, 02:46:05,VALID,1000.51,VALID,0,VALID,93.8047,VALID,0,VALID,24.2291,VALID,3,VALID,0.369141,
2009-12-26, 02:47:05,VALID,1000.54,VALID,0,VALID,93.9725,VALID,0.100563,VALID,24.2662,VALID,3,VALID,0.343359,
2009-12-26, 02:48:05,VALID,1000.54,VALID,0,VALID,94.0259,VALID,0.100563,VALID,24.2662,VALID,3,VALID,0.120703,
2009-12-26, 02:49:05,VALID,1000.58,VALID,0,VALID,94.0336,VALID,0.100563,VALID,24.2875,VALID,3,VALID,0,
2009-12-26, 02:50:05,VALID,1000.6,VALID,0,VALID,94.0107,VALID,0,VALID,24.2681,VALID,3,VALID,0.0550781,
2009-12-26, 02:51:05,VALID,1000.63,VALID,0,VALID,93.9802,VALID,0,VALID,24.2078,VALID,3,VALID,0.438672,
2009-12-26, 02:52:05,VALID,1000.63,VALID,0,VALID,93.9878,VALID,0,VALID,24.2097,VALID,3,VALID,0.132422,
2009-12-26, 02:53:05,VALID,1000.65,VALID,0,VALID,94.0107,VALID,0,VALID,24.2078,VALID,3,VALID,0,
2009-12-26, 02:54:05,VALID,1000.66,VALID,0,VALID,94.0336,VALID,0,VALID,24.2097,VALID,3,VALID,0,
2009-12-26, 02:55:05,VALID,1000.66,VALID,0,VALID,94.0946,VALID,0.100563,VALID,24.2486,VALID,3,VALID,0,
2009-12-26, 02:56:05,VALID,1000.66,VALID,0,VALID,94.1099,VALID,0,VALID,24.2291,VALID,3,VALID,0,
2009-12-26, 02:57:05,VALID,1000.67,VALID,0,VALID,94.148,VALID,0,VALID,24.2681,VALID,3,VALID,0,
2009-12-26, 02:58:05,VALID,1000.65,VALID,0,VALID,94.1862,VALID,0,VALID,24.2468,VALID,3,VALID,0,
2009-12-26, 02:59:04,VALID,1000.65,VALID,0,VALID,94.2243,VALID,0.100563,VALID,24.2662,VALID,3,VALID,0,
2009-12-26, 03:00:04,VALID,1000.66,VALID,0,VALID,94.2701,VALID,0,VALID,24.2857,VALID,3,VALID,0,
2009-12-26, 03:01:04,VALID,1000.68,VALID,0,VALID,94.2853,VALID,0,VALID,24.2857,VALID,3,VALID,0,
2009-12-26, 03:02:04,VALID,1000.67,VALID,0,VALID,94.3311,VALID,0.100563,VALID,24.3033,VALID,3,VALID,0,
2009-12-26, 03:03:04,VALID,1000.67,VALID,0,VALID,94.3692,VALID,0,VALID,24.3441,VALID,3,VALID,0,
2009-12-26, 03:04:04,VALID,1000.69,VALID,0,VALID,94.3845,VALID,0,VALID,24.3849,VALID,3,VALID,0,
2009-12-26, 03:05:04,VALID,1000.67,VALID,0,VALID,94.3692,VALID,0,VALID,24.3636,VALID,3,VALID,0,
2009-12-26, 03:06:04,VALID,1000.69,VALID,0,VALID,94.3616,VALID,0.100563,VALID,24.383,VALID,3,VALID,0,
2009-12-26, 03:07:04,VALID,1000.7,VALID,0,VALID,94.4074,VALID,0,VALID,24.4804,VALID,3,VALID,0,
2009-12-26, 03:08:04,VALID,1000.71,VALID,0,VALID,94.4227,VALID,0,VALID,24.4998,VALID,3,VALID,0,
2009-12-26, 03:09:04,VALID,1000.71,VALID,0,VALID,94.4684,VALID,0,VALID,24.5193,VALID,3,VALID,0,
2009-12-26, 03:10:04,VALID,1000.73,VALID,0,VALID,94.4608,VALID,0,VALID,24.5388,VALID,3,VALID,0,
2009-12-26, 03:11:04,VALID,1000.74,VALID,0,VALID,94.415,VALID,0,VALID,24.498,VALID,3,VALID,0,
2009-12-26, 03:12:04,VALID,1000.74,VALID,0,VALID,94.354,VALID,0.100563,VALID,24.5406,VALID,3,VALID,0,
2009-12-26, 03:13:04,VALID,1000.74,VALID,0,VALID,94.293,VALID,0.100563,VALID,24.5193,VALID,3,VALID,0,
2009-12-26, 03:14:04,VALID,1000.72,VALID,0,VALID,94.2548,VALID,0,VALID,24.5425,VALID,3,VALID,0,
2009-12-26, 03:15:04,VALID,1000.74,VALID,0,VALID,94.2167,VALID,0,VALID,24.5406,VALID,3,VALID,0,
2009-12-26, 03:16:04,VALID,1000.7,VALID,0,VALID,94.209,VALID,0,VALID,24.5425,VALID,3,VALID,0,
2009-12-26, 03:17:04,VALID,1000.73,VALID,0,VALID,94.1862,VALID,0,VALID,24.562,VALID,3,VALID,0,
2009-12-26, 03:18:04,VALID,1000.75,VALID,0,VALID,94.148,VALID,0,VALID,24.5425,VALID,3,VALID,0,
2009-12-26, 03:19:04,VALID,1000.72,VALID,0,VALID,94.1404,VALID,0,VALID,24.5425,VALID,3,VALID,0,
2009-12-26, 03:20:04,VALID,1000.72,VALID,0,VALID,94.148,VALID,0,VALID,24.5425,VALID,3,VALID,0,
2009-12-26, 03:21:04,VALID,1000.71,VALID,0,VALID,94.1175,VALID,0,VALID,24.5212,VALID,3,VALID,0,
2009-12-26, 03:22:04,VALID,1000.72,VALID,0,VALID,94.0946,VALID,0,VALID,24.4822,VALID,3,VALID,0,
2009-12-26, 03:23:04,VALID,1000.75,VALID,0,VALID,94.0641,VALID,0,VALID,24.4822,VALID,3,VALID,0,
2009-12-26, 03:24:04,VALID,1000.76,VALID,0,VALID,94.0412,VALID,0,VALID,24.5017,VALID,3,VALID,0,
2009-12-26, 03:25:04,VALID,1000.79,VALID,0,VALID,94.0565,VALID,0,VALID,24.4822,VALID,3,VALID,0,
2009-12-26, 03:26:04,VALID,1000.79,VALID,0,VALID,94.0641,VALID,0,VALID,24.4822,VALID,3,VALID,0,
2009-12-26, 03:27:04,VALID,1000.81,VALID,0,VALID,94.0565,VALID,0,VALID,24.4628,VALID,3,VALID,0,
2009-12-26, 03:28:04,VALID,1000.85,VALID,0,VALID,94.0488,VALID,0,VALID,24.4628,VALID,3,VALID,0,
2009-12-26, 03:29:04,VALID,1000.88,VALID,0,VALID,94.0565,VALID,0,VALID,24.4414,VALID,3,VALID,0,
2009-12-26, 03:30:04,VALID,1000.88,VALID,0,VALID,94.0336,VALID,0.100563,VALID,24.422,VALID,3,VALID,0,
2009-12-26, 03:31:04,VALID,1000.87,VALID,0,VALID,94.0183,VALID,0,VALID,24.4025,VALID,3,VALID,0,
2009-12-26, 03:32:04,VALID,1000.87,VALID,0,VALID,93.9954,VALID,0.100563,VALID,24.3849,VALID,3,VALID,0.488672,
2009-12-26, 03:33:04,VALID,1000.9,VALID,0,VALID,93.9268,VALID,0.100563,VALID,24.3052,VALID,3,VALID,0.358984,
2009-12-26, 03:34:04,VALID,1000.88,VALID,0,VALID,93.881,VALID,0,VALID,24.2468,VALID,3,VALID,0.428516,
2009-12-26, 03:35:04,VALID,1000.88,VALID,0,VALID,93.8429,VALID,0,VALID,24.1884,VALID,3,VALID,0.396875,
2009-12-26, 03:36:04,VALID,1000.88,VALID,0,VALID,93.8352,VALID,0,VALID,24.1689,VALID,3,VALID,0.139453,
2009-12-26, 03:37:04,VALID,1000.93,VALID,0,VALID,93.9725,VALID,0,VALID,24.2097,VALID,3,VALID,0.308984,
2009-12-26, 03:38:04,VALID,1000.93,VALID,0,VALID,94.1099,VALID,0,VALID,24.2486,VALID,3,VALID,0.253906,
2009-12-26, 03:39:04,VALID,1000.95,VALID,0,VALID,94.1556,VALID,0,VALID,24.2486,VALID,3,VALID,0.342187,
2009-12-26, 03:40:04,VALID,1000.95,VALID,0,VALID,94.1251,VALID,0,VALID,24.1884,VALID,3,VALID,0.367578,
2009-12-26, 03:41:04,VALID,1000.95,VALID,0,VALID,94.0794,VALID,0,VALID,24.1087,VALID,3,VALID,0.621875,
2009-12-26, 03:42:04,VALID,1000.94,VALID,0,VALID,94.1175,VALID,0,VALID,24.1513,VALID,3,VALID,0.596484,
2009-12-26, 03:43:04,VALID,1000.96,VALID,0,VALID,94.1556,VALID,0,VALID,24.1318,VALID,3,VALID,0.775781,
2009-12-26, 03:44:04,VALID,1000.95,VALID,0,VALID,94.1099,VALID,0,VALID,24.0326,VALID,3,VALID,0.744531,
2009-12-26, 03:45:04,VALID,1000.92,VALID,0,VALID,94.0565,VALID,0,VALID,23.9955,VALID,3,VALID,0.508594,
2009-12-26, 03:46:04,VALID,1000.91,VALID,0,VALID,94.0565,VALID,0,VALID,23.9371,VALID,3,VALID,0.528516,
2009-12-26, 03:47:04,VALID,1000.93,VALID,0,VALID,94.1328,VALID,0,VALID,23.8964,VALID,3,VALID,0.533203,
2009-12-26, 03:48:04,VALID,1000.92,VALID,0,VALID,94.1556,VALID,0.100563,VALID,23.8982,VALID,3,VALID,0.319531,
2009-12-26, 03:49:04,VALID,1000.89,VALID,0,VALID,94.3082,VALID,0,VALID,23.9353,VALID,3,VALID,0.295312,
2009-12-26, 03:50:04,VALID,1000.86,VALID,0,VALID,94.4379,VALID,0,VALID,23.9937,VALID,3,VALID,0,
2009-12-26, 03:51:04,VALID,1000.91,VALID,0,VALID,94.5523,VALID,0,VALID,24.0326,VALID,3,VALID,0,
2009-12-26, 03:52:04,VALID,1000.86,VALID,0,VALID,94.5752,VALID,0.100563,VALID,24.0326,VALID,3,VALID,0,